Portada
METAR-TAF:

METAR-TAF

Aeroports :

Ōdate-Noshiro, Japó

latitud: 40-11N, longitud: 140-12E, altitud: 84 m

Observació

L'informe es va fer fa 39 minuts, a les 02:00 UTC
Vent 11 kt del Oest
Temperatura 3°C
Humitat 60%
Pressió 1025 hPa
Visibilitat 10 km o més
Escasses núvols a una alçada de 1500 ft
Núvols disperses a una alçada de 3000 ft
Cel ennuvolat a una alçada de 4000 ft
xàfecs de neu

METAR: RJSR 130200Z 27011KT 9999 -SHSN FEW015 SCT030 BKN040 03/M04 Q1025

Hora: 11:39 (02:39 UTC)


TAF: manca

Observacions i pronòstics meteorològics de més de 4000 aeroports (METAR i TAF).

Les estacions disponibles són els punts grocs i vermells al mapa.

Posi el ratolí al punt desitjat per veure el nom de l'estació.

Feu clic per veure les observacions i els pronòstics meteorològics.

Per canviar el mapa: feu clic els botons verds amb una creu de color negre per apropar; al botó verd amb un guió per allunyar la imatge; o en les fletxes verdes per a mapes adjacents.


METAR-TAF: